When you browse on this site, cookies collect data to enhance your experience and personalize the content and advertising you see.
Visit our Privacy Policy to learn more. By continuing to use the site, you agree to this use of cookies and data.
  • In Slovakia
  • List of Countries
  • For 7 days
  • Water Temperature
  • Satellite Maps
  • Weather Map
  • Weather Widgets
  • user-avatar
    Login

    Hourly Weather Cizgari

    Today, 25 June, Tuesday

    Time Temperature Precipitation Wind Pressure Humidity
    00:00 +18°C° 0 mm 2 mps 646 mmHg 67%
    01:00 +18°C° 0.1 mm 2 mps 646 mmHg 67%
    02:00 +17°C° 0.1 mm 2 mps 646 mmHg 68%
    03:00 +17°C° 0.1 mm 2 mps 645 mmHg 68%
    04:00 +18°C° 0.1 mm 2 mps 646 mmHg 68%
    05:00 +20°C° 0.1 mm 1 mps 646 mmHg 67%
    06:00 +21°C° 0.1 mm 1 mps 647 mmHg 66%
    07:00 +22°C° 0 mm 1 mps 647 mmHg 62%
    08:00 +24°C° 0 mm 2 mps 648 mmHg 58%
    09:00 +26°C° 0 mm 2 mps 649 mmHg 54%
    10:00 +26°C° 0.6 mm 2 mps 649 mmHg 55%
    11:00 +26°C° 0.6 mm 3 mps 649 mmHg 57%
    12:00 +26°C° 0.6 mm 3 mps 649 mmHg 58%
    13:00 +26°C° 0.8 mm 3 mps 648 mmHg 60%
    14:00 +26°C° 0.8 mm 2 mps 648 mmHg 62%
    15:00 +26°C° 0.8 mm 2 mps 648 mmHg 64%
    16:00 +25°C° 0.5 mm 2 mps 648 mmHg 67%
    17:00 +24°C° 0.5 mm 1 mps 648 mmHg 70%
    18:00 +24°C° 0.5 mm 1 mps 647 mmHg 73%
    19:00 +22°C° 0.6 mm 1 mps 647 mmHg 75%
    20:00 +20°C° 0.6 mm 2 mps 647 mmHg 77%
    21:00 +19°C° 0.6 mm 2 mps 647 mmHg 79%
    22:00 +18°C° 0.1 mm 2 mps 647 mmHg 77%
    23:00 +18°C° 0.1 mm 2 mps 646 mmHg 75%

    Tomorrow, 26 June, Wednesday

    Time Temperature Precipitation Wind Pressure Humidity
    00:00 +18°C° 0.1 mm 2 mps 646 mmHg 73%
    01:00 +18°C° 0.1 mm 2 mps 646 mmHg 71%
    02:00 +18°C° 0.1 mm 2 mps 646 mmHg 70%
    03:00 +17°C° 0.1 mm 2 mps 646 mmHg 68%
    04:00 +18°C° 0 mm 2 mps 647 mmHg 67%
    05:00 +19°C° 0 mm 2 mps 647 mmHg 66%
    06:00 +20°C° 0 mm 2 mps 647 mmHg 65%
    07:00 +21°C° 0.3 mm 2 mps 648 mmHg 62%
    08:00 +24°C° 0.3 mm 2 mps 648 mmHg 59%
    09:00 +25°C° 0.3 mm 2 mps 649 mmHg 56%
    10:00 +25°C° 1.2 mm 3 mps 649 mmHg 59%
    11:00 +25°C° 1.2 mm 3 mps 649 mmHg 61%
    12:00 +24°C° 1.2 mm 3 mps 649 mmHg 63%
    13:00 +24°C° 1.4 mm 3 mps 648 mmHg 67%
    14:00 +22°C° 1.4 mm 3 mps 648 mmHg 71%
    15:00 +21°C° 1.4 mm 3 mps 648 mmHg 74%
    16:00 +21°C° 0.9 mm 2 mps 647 mmHg 77%
    17:00 +20°C° 0.9 mm 2 mps 647 mmHg 80%
    18:00 +20°C° 0.9 mm 1 mps 647 mmHg 82%
    19:00 +19°C° 0.7 mm 1 mps 647 mmHg 83%
    20:00 +19°C° 0.7 mm 1 mps 647 mmHg 83%
    21:00 +16°C° 0.7 mm 0 mps 647 mmHg 84%
    22:00 +16°C° 0.2 mm 1 mps 646 mmHg 83%
    23:00 +16°C° 0.2 mm 1 mps 646 mmHg 83%

    Day after tomorrow, 27 June, Thursday

    Time Temperature Precipitation Wind Pressure Humidity
    00:00 +16°C° 0.2 mm 1 mps 646 mmHg 82%
    01:00 +15°C° 0.1 mm 1 mps 645 mmHg 82%
    02:00 +15°C° 0.1 mm 1 mps 645 mmHg 81%
    03:00 +15°C° 0.1 mm 1 mps 645 mmHg 80%
    04:00 +16°C° 0.1 mm 1 mps 645 mmHg 77%
    05:00 +18°C° 0.1 mm 1 mps 645 mmHg 75%
    06:00 +19°C° 0.1 mm 1 mps 646 mmHg 72%
    07:00 +20°C° 0.2 mm 1 mps 646 mmHg 68%
    08:00 +20°C° 0.2 mm 2 mps 646 mmHg 65%
    09:00 +21°C° 0.2 mm 3 mps 647 mmHg 61%
    10:00 +21°C° 0.5 mm 3 mps 646 mmHg 60%
    11:00 +22°C° 0.5 mm 3 mps 646 mmHg 60%
    12:00 +22°C° 0.5 mm 4 mps 646 mmHg 59%
    13:00 +21°C° 0.2 mm 3 mps 646 mmHg 60%
    14:00 +21°C° 0.2 mm 3 mps 645 mmHg 61%
    15:00 +21°C° 0.2 mm 3 mps 645 mmHg 62%
    16:00 +20°C° 0.3 mm 3 mps 645 mmHg 64%
    17:00 +20°C° 0.3 mm 2 mps 644 mmHg 67%
    18:00 +19°C° 0.3 mm 2 mps 644 mmHg 69%
    19:00 +18°C° 0.2 mm 2 mps 644 mmHg 72%
    20:00 +16°C° 0.2 mm 1 mps 643 mmHg 75%
    21:00 +15°C° 0.2 mm 1 mps 643 mmHg 78%
    22:00 +15°C° 0 mm 1 mps 643 mmHg 78%
    23:00 +14°C° 0 mm 1 mps 642 mmHg 79%

    28 June, Friday

    Time Temperature Precipitation Wind Pressure Humidity
    00:00 +14°C° 0 mm 1 mps 642 mmHg 79%
    01:00 +14°C° 0 mm 1 mps 642 mmHg 78%
    02:00 +14°C° 0 mm 1 mps 641 mmHg 77%
    03:00 +14°C° 0 mm 1 mps 641 mmHg 76%
    04:00 +15°C° 0 mm 1 mps 641 mmHg 74%
    05:00 +15°C° 0 mm 1 mps 641 mmHg 71%
    06:00 +16°C° 0 mm 1 mps 642 mmHg 69%
    07:00 +18°C° 0 mm 2 mps 642 mmHg 64%
    08:00 +19°C° 0 mm 2 mps 642 mmHg 60%
    09:00 +20°C° 0 mm 3 mps 642 mmHg 56%
    10:00 +21°C° 0.1 mm 3 mps 642 mmHg 56%
    11:00 +22°C° 0.1 mm 4 mps 642 mmHg 55%
    12:00 +22°C° 0.1 mm 4 mps 642 mmHg 55%
    13:00 +22°C° 0.4 mm 4 mps 642 mmHg 57%
    14:00 +22°C° 0.4 mm 4 mps 641 mmHg 59%
    15:00 +21°C° 0.4 mm 4 mps 641 mmHg 61%
    16:00 +21°C° 0.3 mm 3 mps 640 mmHg 64%
    17:00 +20°C° 0.3 mm 2 mps 640 mmHg 67%
    18:00 +19°C° 0.3 mm 2 mps 640 mmHg 70%
    19:00 +19°C° 0 mm 1 mps 639 mmHg 72%
    20:00 +18°C° 0 mm 1 mps 639 mmHg 74%
    21:00 +16°C° 0 mm 1 mps 639 mmHg 76%
    22:00 +16°C° 0 mm 1 mps 639 mmHg 75%
    23:00 +16°C° 0 mm 1 mps 639 mmHg 73%

    29 June, Saturday

    Time Temperature Precipitation Wind Pressure Humidity
    00:00 +16°C° 0 mm 1 mps 639 mmHg 71%
    01:00 +16°C° 0 mm 1 mps 639 mmHg 72%
    02:00 +15°C° 0 mm 1 mps 639 mmHg 72%
    03:00 +15°C° 0 mm 1 mps 638 mmHg 72%
    04:00 +16°C° 0 mm 1 mps 639 mmHg 73%
    05:00 +18°C° 0 mm 1 mps 639 mmHg 73%
    06:00 +18°C° 0 mm 1 mps 639 mmHg 73%
    07:00 +19°C° 0.1 mm 1 mps 639 mmHg 72%
    08:00 +19°C° 0.1 mm 1 mps 640 mmHg 70%
    09:00 +20°C° 0.1 mm 1 mps 640 mmHg 69%
    10:00 +20°C° 0.3 mm 1 mps 640 mmHg 69%
    11:00 +19°C° 0.3 mm 2 mps 640 mmHg 70%
    12:00 +19°C° 0.3 mm 2 mps 640 mmHg 71%
    13:00 +19°C° 0.4 mm 3 mps 640 mmHg 71%
    14:00 +20°C° 0.4 mm 3 mps 639 mmHg 72%
    15:00 +20°C° 0.4 mm 3 mps 639 mmHg 73%
    16:00 +19°C° 0.4 mm 3 mps 639 mmHg 76%
    17:00 +18°C° 0.4 mm 2 mps 639 mmHg 79%
    18:00 +18°C° 0.4 mm 2 mps 639 mmHg 82%
    19:00 +18°C° 0.3 mm 1 mps 639 mmHg 85%
    20:00 +16°C° 0.3 mm 1 mps 639 mmHg 87%
    21:00 +15°C° 0.3 mm 1 mps 640 mmHg 90%
    22:00 +15°C° 0.3 mm 1 mps 640 mmHg 91%
    23:00 +15°C° 0.3 mm 2 mps 640 mmHg 92%

    30 June, Sunday

    Time Temperature Precipitation Wind Pressure Humidity
    00:00 +14°C° 0.3 mm 2 mps 640 mmHg 93%
    01:00 +14°C° 1.1 mm 2 mps 640 mmHg 93%
    02:00 +13°C° 1.1 mm 2 mps 640 mmHg 93%
    03:00 +13°C° 1.1 mm 2 mps 639 mmHg 93%
    04:00 +13°C° 0.2 mm 1 mps 640 mmHg 92%
    05:00 +13°C° 0.2 mm 1 mps 640 mmHg 91%
    06:00 +13°C° 0.2 mm 1 mps 640 mmHg 90%
    07:00 +14°C° 0 mm 1 mps 640 mmHg 86%
    08:00 +15°C° 0 mm 2 mps 640 mmHg 81%
    09:00 +15°C° 0 mm 2 mps 640 mmHg 76%
    10:00 +16°C° 0 mm 2 mps 640 mmHg 77%
    11:00 +16°C° 0 mm 2 mps 640 mmHg 77%
    12:00 +16°C° 0 mm 3 mps 640 mmHg 77%
    13:00 +16°C° 0 mm 2 mps 640 mmHg 79%
    14:00 +15°C° 0 mm 2 mps 640 mmHg 80%
    15:00 +15°C° 0 mm 2 mps 640 mmHg 82%
    16:00 +15°C° 0 mm 2 mps 640 mmHg 83%
    17:00 +15°C° 0 mm 2 mps 640 mmHg 84%
    18:00 +15°C° 0 mm 1 mps 640 mmHg 84%
    19:00 +15°C° 0 mm 1 mps 640 mmHg 86%
    20:00 +14°C° 0 mm 1 mps 640 mmHg 87%
    21:00 +14°C° 0 mm 1 mps 641 mmHg 89%
    22:00 +13°C° 0.1 mm 1 mps 641 mmHg 85%
    23:00 +13°C° 0.1 mm 2 mps 641 mmHg 81%
    Show more